Terminal Aerodrome Forecast
Issued by NWS State College, PA

Home | Current Version | Previous Version | Text Only | Print | Product List | Glossary On
Versions: 1 2 3 4 5 6 7 8 9 10 11 12 13 14 15 16 17 18 19 20 21 22 23 24 25 26 27 28 29 30 31 32 33 34 35 36 37 38 39 40 41 42 43 44 45 46 47 48 49 50
000
FTUS41 KCTP 311728
TAFIPT
TAF
KIPT 311728Z 3118/0118 26006KT P6SM SCT040
     FM312000 25006KT P6SM VCSH BKN050
     FM010100 00000KT 6SM BR SCT040
     FM010300 00000KT 4SM BR SCT150
     FM010900 00000KT 2SM BR BKN004
     FM011200 29005KT P6SM BKN090=

USA.gov is the U.S. government's official web portal to all federal, state and local government web resources and services.